User: anonymous   Login
Location: Columbia
(38.9520°N, 92.3340°W)
Time: 00:56:58
(UTC-05:00)
Language:

Cosmos 2100 Rocket - Orbit

View from above orbital plane
View from above orbital plane
View from above satellite
View from above satellite

Ground track
Ground track

The orbit data is extracted from the following two-line orbital elements,

1 20805U 90083B   17227.91625440  .00000095  00000-0  82684-4 0  9991
2 20805  82.9377  16.6070 0029670 224.9878 245.4547 13.75825342351614
Epoch (UTC): 15 August 2017 21:59:24
Eccentricity: 0.0029670
inclination: 82.9377°
perigee height: 957 km
apogee height: 1000 km
right ascension of ascending node: 16.6070°
argument of perigee: 224.9878°
revolutions per day: 13.75825342
mean anomaly at epoch: 245.4547°
orbit number at epoch: 35161

The dashed part of the orbit path shows where the satellite is in the earth's shadow,  

DLR